Time,TemperatureF,DewpointF,PressureIn,WindDirection,WindDirectionDegrees,WindSpeedMPH,WindSpeedGustMPH,Humidity,HourlyPrecipIn,Conditions,Clouds,dailyrainin,SolarRadiationWatts/m^2,SoftwareType,DateUTC
2013-09-12 00:04:00,65.8,65.0,30.05,SE,138,0.0,5.0,96,0.01,,,0.63,0,weatherlink.com 1.10,2013-09-12 05:04:00,
2013-09-12 00:19:00,65.8,65.0,30.04,SSE,159,0.0,6.0,96,0.01,,,0.63,0,weatherlink.com 1.10,2013-09-12 05:19:00,
2013-09-12 00:34:00,65.8,65.0,30.04,SSE,147,0.0,3.0,96,0.01,,,0.63,0,weatherlink.com 1.10,2013-09-12 05:34:00,
2013-09-12 00:49:00,65.9,65.0,30.04,SSE,147,0.0,0.0,96,0.01,,,0.64,0,weatherlink.com 1.10,2013-09-12 05:49:00,
2013-09-12 01:04:00,65.8,65.0,30.04,SSE,147,0.0,0.0,96,0.01,,,0.64,0,weatherlink.com 1.10,2013-09-12 06:04:00,
2013-09-12 01:20:00,65.7,65.0,30.05,SSE,147,0.0,0.0,96,0.02,,,0.65,0,weatherlink.com 1.10,2013-09-12 06:20:00,
2013-09-12 01:35:00,65.7,65.0,30.05,SSE,147,0.0,1.0,96,0.02,,,0.65,0,weatherlink.com 1.10,2013-09-12 06:35:00,
2013-09-12 01:50:00,65.9,65.0,30.05,SSE,147,0.0,0.0,96,0.02,,,0.66,0,weatherlink.com 1.10,2013-09-12 06:50:00,
2013-09-12 02:05:00,66.2,65.0,30.05,SSE,147,0.0,0.0,96,0.02,,,0.66,0,weatherlink.com 1.10,2013-09-12 07:05:00,
2013-09-12 02:20:00,65.5,64.0,30.05,SSE,161,0.0,1.0,95,0.01,,,0.66,0,weatherlink.com 1.10,2013-09-12 07:20:00,
2013-09-12 02:35:00,65.3,64.0,30.05,SSE,162,0.0,0.0,95,0.02,,,0.67,0,weatherlink.com 1.10,2013-09-12 07:35:00,
2013-09-12 02:50:00,65.3,64.0,30.05,SSE,162,0.0,1.0,95,0.01,,,0.67,0,weatherlink.com 1.10,2013-09-12 07:50:00,
2013-09-12 03:05:00,65.1,64.0,30.05,SSE,162,0.0,0.0,95,0.01,,,0.67,0,weatherlink.com 1.10,2013-09-12 08:05:00,
2013-09-12 03:20:00,65.0,64.0,30.06,SSE,162,0.0,0.0,95,0.01,,,0.67,0,weatherlink.com 1.10,2013-09-12 08:20:00,
2013-09-12 03:35:00,64.9,64.0,30.06,SSE,162,0.0,1.0,95,0.01,,,0.68,0,weatherlink.com 1.10,2013-09-12 08:35:00,
2013-09-12 03:50:00,65.0,64.0,30.06,SSE,161,0.0,1.0,95,0.01,,,0.00,0,weatherlink.com 1.10,2013-09-12 08:50:00,
2013-09-12 04:05:00,65.0,64.0,30.05,SSE,159,0.0,1.0,95,0.01,,,0.00,0,weatherlink.com 1.10,2013-09-12 09:05:00,
2013-09-12 04:20:00,65.3,64.0,30.05,SSE,159,0.0,1.0,95,0.01,,,0.00,0,weatherlink.com 1.10,2013-09-12 09:20:00,
2013-09-12 04:35:00,65.6,65.0,30.05,SE,143,0.0,1.0,96,0.01,,,0.01,0,weatherlink.com 1.10,2013-09-12 09:35:00,
2013-09-12 04:50:00,65.5,64.0,30.06,SE,141,0.0,1.0,96,0.01,,,0.01,0,weatherlink.com 1.10,2013-09-12 09:50:00,
2013-09-12 05:05:00,65.6,65.0,30.05,ESE,121,0.0,1.0,96,0.01,,,0.01,0,weatherlink.com 1.10,2013-09-12 10:05:00,
2013-09-12 05:20:00,65.5,64.0,30.05,ESE,121,0.0,1.0,96,0.01,,,0.01,0,weatherlink.com 1.10,2013-09-12 10:20:00,
2013-09-12 05:35:00,65.4,64.0,30.06,ESE,110,0.0,1.0,96,0.00,,,0.01,0,weatherlink.com 1.10,2013-09-12 10:35:00,
2013-09-12 05:50:00,65.4,64.0,30.06,ESE,110,0.0,0.0,96,0.00,,,0.01,0,weatherlink.com 1.10,2013-09-12 10:50:00,
2013-09-12 06:05:00,65.4,64.0,30.06,ESE,110,0.0,0.0,96,0.00,,,0.01,0,weatherlink.com 1.10,2013-09-12 11:05:00,
2013-09-12 06:20:00,65.3,64.0,30.07,ESE,110,0.0,0.0,96,0.00,,,0.01,0,weatherlink.com 1.10,2013-09-12 11:20:00,
2013-09-12 06:35:00,65.4,64.0,30.07,ESE,110,0.0,0.0,96,0.00,,,0.01,0,weatherlink.com 1.10,2013-09-12 11:35:00,
2013-09-12 06:50:00,65.3,64.0,30.07,ESE,110,0.0,0.0,96,0.00,,,0.01,0,weatherlink.com 1.10,2013-09-12 11:50:00,
2013-09-12 07:05:00,65.4,64.0,30.08,ESE,110,0.0,0.0,96,0.00,,,0.01,0,weatherlink.com 1.10,2013-09-12 12:05:00,
2013-09-12 07:20:00,65.7,65.0,30.08,ESE,110,0.0,0.0,96,0.00,,,0.01,0,weatherlink.com 1.10,2013-09-12 12:20:00,
2013-09-12 07:35:00,65.3,64.0,30.08,ESE,110,0.0,0.0,96,0.00,,,0.01,11,weatherlink.com 1.10,2013-09-12 12:35:00,
2013-09-12 07:50:00,65.6,65.0,30.08,ESE,110,0.0,1.0,96,0.00,,,0.01,18,weatherlink.com 1.10,2013-09-12 12:50:00,
2013-09-12 08:05:00,65.8,65.0,30.08,ESE,109,0.0,1.0,96,0.01,,,0.02,32,weatherlink.com 1.10,2013-09-12 13:05:00,
2013-09-12 08:20:00,65.8,65.0,30.09,East,84,0.0,1.0,96,0.01,,,0.02,14,weatherlink.com 1.10,2013-09-12 13:20:00,
2013-09-12 08:35:00,65.8,65.0,30.09,ENE,70,0.0,1.0,96,0.01,,,0.02,25,weatherlink.com 1.10,2013-09-12 13:35:00,
2013-09-12 08:50:00,66.1,65.0,30.09,ENE,67,0.0,1.0,96,0.01,,,0.02,47,weatherlink.com 1.10,2013-09-12 13:50:00,
2013-09-12 09:05:00,66.3,65.0,30.10,ENE,67,0.0,1.0,96,0.00,,,0.02,176,weatherlink.com 1.10,2013-09-12 14:05:00,
2013-09-12 09:20:00,66.6,66.0,30.10,ENE,61,0.0,1.0,96,0.01,,,0.03,132,weatherlink.com 1.10,2013-09-12 14:20:00,
2013-09-12 09:35:00,67.0,66.0,30.11,ENE,70,0.0,1.0,96,0.01,,,0.03,146,weatherlink.com 1.10,2013-09-12 14:35:00,
2013-09-12 09:50:00,66.5,65.0,30.11,ENE,70,0.0,1.0,95,0.01,,,0.03,62,weatherlink.com 1.10,2013-09-12 14:50:00,
2013-09-12 10:05:00,66.5,65.0,30.11,ENE,77,0.0,1.0,95,0.02,,,0.04,100,weatherlink.com 1.10,2013-09-12 15:05:00,
2013-09-12 10:20:00,66.8,65.0,30.11,ENE,74,0.0,1.0,95,0.01,,,0.04,65,weatherlink.com 1.10,2013-09-12 15:20:00,
2013-09-12 10:35:00,67.3,66.0,30.11,ENE,72,0.0,1.0,95,0.02,,,0.05,116,weatherlink.com 1.10,2013-09-12 15:35:00,
2013-09-12 10:50:00,67.5,66.0,30.12,ENE,72,7.0,13.0,95,0.02,,,0.05,137,weatherlink.com 1.10,2013-09-12 15:50:00,
2013-09-12 11:05:00,67.4,66.0,30.12,ENE,67,3.0,11.0,94,0.02,,,0.06,142,weatherlink.com 1.10,2013-09-12 16:05:00,
2013-09-12 11:20:00,67.4,66.0,30.12,ENE,59,0.0,12.0,94,0.02,,,0.06,88,weatherlink.com 1.10,2013-09-12 16:20:00,
2013-09-12 11:35:00,67.5,66.0,30.12,ENE,69,7.0,12.0,94,0.02,,,0.07,123,weatherlink.com 1.10,2013-09-12 16:35:00,
2013-09-12 11:50:00,67.9,66.0,30.12,ENE,59,0.0,10.0,93,0.03,,,0.08,230,weatherlink.com 1.10,2013-09-12 16:50:00,
2013-09-12 12:06:00,68.3,66.0,30.11,NE,50,0.0,13.0,92,0.02,,,0.08,214,weatherlink.com 1.10,2013-09-12 17:06:00,
2013-09-12 12:21:00,68.9,66.0,30.11,ENE,70,7.0,14.0,90,0.03,,,0.09,134,weatherlink.com 1.10,2013-09-12 17:21:00,
2013-09-12 12:36:00,68.8,66.0,30.11,ENE,69,8.0,15.0,90,0.03,,,0.10,156,weatherlink.com 1.10,2013-09-12 17:36:00,
2013-09-12 12:51:00,69.3,66.0,30.11,ENE,70,5.0,16.0,89,0.02,,,0.10,246,weatherlink.com 1.10,2013-09-12 17:51:00,
2013-09-12 13:06:00,68.8,66.0,30.11,ENE,73,8.0,16.0,89,0.03,,,0.11,213,weatherlink.com 1.10,2013-09-12 18:06:00,
2013-09-12 13:21:00,68.0,65.0,30.11,ENE,78,4.0,14.0,90,0.03,,,0.12,102,weatherlink.com 1.10,2013-09-12 18:21:00,
2013-09-12 13:36:00,67.7,65.0,30.11,East,88,8.0,14.0,92,0.02,,,0.12,125,weatherlink.com 1.10,2013-09-12 18:36:00,
2013-09-12 13:51:00,67.3,64.0,30.11,East,81,8.0,15.0,90,0.03,,,0.13,91,weatherlink.com 1.10,2013-09-12 18:51:00,
2013-09-12 14:06:00,67.2,65.0,30.11,ENE,74,4.0,13.0,92,0.02,,,0.13,47,weatherlink.com 1.10,2013-09-12 19:06:00,
2013-09-12 14:21:00,66.8,65.0,30.11,ESE,104,10.0,17.0,92,0.02,,,0.14,116,weatherlink.com 1.10,2013-09-12 19:21:00,
2013-09-12 14:36:00,66.4,64.0,30.11,East,84,10.0,15.0,93,0.02,,,0.14,63,weatherlink.com 1.10,2013-09-12 19:36:00,
2013-09-12 14:51:00,66.0,64.0,30.11,East,82,11.0,15.0,93,0.02,,,0.15,60,weatherlink.com 1.10,2013-09-12 19:51:00,
2013-09-12 15:06:00,66.3,65.0,30.11,East,101,0.0,10.0,94,0.02,,,0.15,72,weatherlink.com 1.10,2013-09-12 20:06:00,
2013-09-12 15:21:00,66.5,65.0,30.10,East,92,0.0,11.0,94,0.02,,,0.16,79,weatherlink.com 1.10,2013-09-12 20:21:00,
2013-09-12 15:36:00,66.7,65.0,30.10,ESE,102,0.0,9.0,95,0.01,,,0.16,74,weatherlink.com 1.10,2013-09-12 20:36:00,
2013-09-12 15:51:00,66.7,65.0,30.10,ESE,112,0.0,9.0,95,0.02,,,0.17,21,weatherlink.com 1.10,2013-09-12 20:51:00,
2013-09-12 16:06:00,66.4,65.0,30.09,East,92,7.0,9.0,95,0.03,,,0.18,76,weatherlink.com 1.10,2013-09-12 21:06:00,
2013-09-12 16:21:00,66.2,65.0,30.09,East,90,6.0,11.0,95,0.03,,,0.19,76,weatherlink.com 1.10,2013-09-12 21:21:00,
2013-09-12 16:36:00,66.3,65.0,30.09,ENE,70,4.0,11.0,95,0.03,,,0.20,46,weatherlink.com 1.10,2013-09-12 21:36:00,
2013-09-12 16:51:00,66.5,65.0,30.09,East,82,8.0,11.0,95,0.04,,,0.21,54,weatherlink.com 1.10,2013-09-12 21:51:00,
2013-09-12 17:06:00,66.6,65.0,30.09,East,80,0.0,9.0,95,0.03,,,0.21,51,weatherlink.com 1.10,2013-09-12 22:06:00,
2013-09-12 17:21:00,66.7,65.0,30.09,ENE,69,2.0,9.0,95,0.03,,,0.22,28,weatherlink.com 1.10,2013-09-12 22:21:00,
2013-09-12 17:36:00,66.5,65.0,30.09,ENE,78,0.0,8.0,95,0.03,,,0.23,37,weatherlink.com 1.10,2013-09-12 22:36:00,
2013-09-12 17:51:00,66.3,65.0,30.08,ENE,76,0.0,8.0,95,0.03,,,0.24,35,weatherlink.com 1.10,2013-09-12 22:51:00,
2013-09-12 18:06:00,66.5,65.0,30.08,East,83,6.0,9.0,95,0.03,,,0.25,35,weatherlink.com 1.10,2013-09-12 23:06:00,
2013-09-12 18:21:00,66.6,65.0,30.08,East,85,6.0,11.0,95,0.03,,,0.26,32,weatherlink.com 1.10,2013-09-12 23:21:00,
2013-09-12 18:36:00,66.6,65.0,30.08,East,79,0.0,12.0,95,0.04,,,0.27,23,weatherlink.com 1.10,2013-09-12 23:36:00,
2013-09-12 18:51:00,66.7,65.0,30.08,ENE,69,9.0,11.0,95,0.04,,,0.28,7,weatherlink.com 1.10,2013-09-12 23:51:00,
2013-09-12 19:06:00,65.6,64.0,30.09,East,96,10.0,18.0,94,0.03,,,0.28,9,weatherlink.com 1.10,2013-09-13 00:06:00,
2013-09-12 19:21:00,65.2,64.0,30.08,ESE,115,10.0,14.0,94,0.03,,,0.29,7,weatherlink.com 1.10,2013-09-13 00:21:00,
2013-09-12 19:36:00,64.5,63.0,30.08,East,95,8.0,14.0,94,0.03,,,0.30,0,weatherlink.com 1.10,2013-09-13 00:36:00,
2013-09-12 19:51:00,64.0,62.0,30.08,East,101,0.0,6.0,94,0.02,,,0.30,0,weatherlink.com 1.10,2013-09-13 00:51:00,
2013-09-12 20:06:00,63.7,62.0,30.08,ESE,117,0.0,3.0,94,0.03,,,0.31,0,weatherlink.com 1.10,2013-09-13 01:06:00,
2013-09-12 20:21:00,63.6,62.0,30.08,ESE,123,0.0,5.0,94,0.03,,,0.32,0,weatherlink.com 1.10,2013-09-13 01:21:00,
2013-09-12 20:36:00,63.5,62.0,30.08,ESE,116,0.0,1.0,94,0.02,,,0.32,0,weatherlink.com 1.10,2013-09-13 01:36:00,
2013-09-12 20:51:00,63.4,62.0,30.08,SSE,153,0.0,3.0,94,0.03,,,0.33,0,weatherlink.com 1.10,2013-09-13 01:51:00,
2013-09-12 21:06:00,63.6,62.0,30.09,SE,140,0.0,0.0,93,0.02,,,0.33,0,weatherlink.com 1.10,2013-09-13 02:06:00,
2013-09-12 21:21:00,63.7,62.0,30.09,ESE,121,0.0,0.0,93,0.02,,,0.34,0,weatherlink.com 1.10,2013-09-13 02:21:00,
2013-09-12 21:36:00,63.8,62.0,30.09,ESE,103,0.0,0.0,93,0.02,,,0.34,0,weatherlink.com 1.10,2013-09-13 02:36:00,
2013-09-12 21:51:00,63.6,62.0,30.10,ESE,116,0.0,0.0,93,0.02,,,0.35,0,weatherlink.com 1.10,2013-09-13 02:51:00,
2013-09-12 22:06:00,63.5,62.0,30.10,ESE,116,0.0,0.0,94,0.02,,,0.35,0,weatherlink.com 1.10,2013-09-13 03:06:00,
2013-09-12 22:21:00,64.0,62.0,30.10,ESE,116,0.0,0.0,93,0.02,,,0.36,0,weatherlink.com 1.10,2013-09-13 03:21:00,
2013-09-12 22:36:00,64.3,62.0,30.10,ESE,116,0.0,0.0,93,0.02,,,0.36,0,weatherlink.com 1.10,2013-09-13 03:36:00,
2013-09-12 22:51:00,64.1,62.0,30.10,ESE,105,0.0,0.0,93,0.02,,,0.37,0,weatherlink.com 1.10,2013-09-13 03:51:00,
2013-09-12 23:06:00,64.1,62.0,30.10,ENE,67,0.0,0.0,93,0.02,,,0.37,0,weatherlink.com 1.10,2013-09-13 04:06:00,
2013-09-12 23:21:00,64.5,63.0,30.10,ENE,67,0.0,0.0,93,0.01,,,0.37,0,weatherlink.com 1.10,2013-09-13 04:21:00,
2013-09-12 23:36:00,64.3,63.0,30.10,East,80,0.0,1.0,94,0.02,,,0.38,0,weatherlink.com 1.10,2013-09-13 04:36:00,
2013-09-12 23:51:00,64.1,63.0,30.10,ESE,103,0.0,1.0,95,0.01,,,0.38,0,weatherlink.com 1.10,2013-09-13 04:51:00,